sat.trackr.live / text

‹ back to catalog

ONEWEB-0515

NORAD 54133 · 2022-138W

PAYLOAD ACTIVE UNKNOWN

§ Identity

Operator
Country
UK
Launch date
2022-10-22
Launch site
SRILR
Launch vehicle
Mass (kg)
RCS (m²)

Purposes: comms

External: N2YO · Heavens-Above · Gunter

§ Orbital elements

Epoch: 2026-05-24T22:29:13.687872Z

Period
109.03 min
Inclination
87.9179°
Eccentricity
0.0001980
Mean motion
13.20771836 rev/d
Perigee alt
1,180.3 km
Apogee alt
1,183.3 km
Semi-major
7,559.9 km
B*
1.7236e-4
RAAN
279.0649°
Arg perigee
124.8157°
Mean anomaly
235.3163°
Rev number
17,623

§ Raw data

ONEWEB-05151 54133U 22138W   26144.93696398  .00000083  00000+0  17236-3 0  99942 54133  87.9179 279.0649 0001980 124.8157 235.3163 13.20771836176232

JSON: /api/v1/satellites/54133 · /tle

For live sub-satellite position, see the globe view (requires WebGL).

§ Visibility from observer

Set your observer location to see the next 7 days of passes ≥ 10°. The values pass through the URL so the page stays shareable.

No JS? Fill the form by hand. The geolocation button needs JavaScript.